Weather History for Huntsville, AL

Change the Weather History Date:

Thursday, November 7, 2013

  Actual Average Record
Temperature  
Mean Temperature 49 °F 56 °F  
Max Temperature 62 °F 67 °F 81 °F (1924)
Min Temperature 35 °F 44 °F 25 °F (1993)
Degree Days  
Heating Degree Days 16 10  
Month to date heating degree days 65 62  
Since 1 July heating degree days 196 213  
Cooling Degree Days 0 1  
Month to date cooling degree days 0 7  
Year to date cooling degree days 1833 1947  
Moisture  
Dew Point 43 °F    
Average Humidity 69    
Maximum Humidity 100    
Minimum Humidity 38    
Precipitation  
Precipitation 0.10 in 0.15 in 1.45 in (1943)
Month to date precipitation 0.42 1.02  
Year to date precipitation 49.06 44.65  
Snow  
Snow 0.00 in - - ()
Month to date snowfall 0.0  
Since 1 July snowfall 0.0  
Since 1 September snowfall 0.0  
Snow Depth 0.00 in    
Sea Level Pressure  
Sea Level Pressure 30.21 in    
Wind  
Wind Speed 9 mph (NNW)    
Max Wind Speed 26 mph    
Max Gust Speed 36 mph    
Visibility 8 miles    
Events Rain    
T = Trace of Precipitation, MM = Missing Value Source: NWS Daily Summary

Daily Weather History Graph

Daily Weather History Graph

Search for Another Location

Airport:

Trip Planner

Search our weather history database for the weather conditions in past years. The results will help you decide how hot, cold, wet, or windy it might be!

Date:

Astronomy

Nov. 07, 2013 Rise Set
Actual Time 6:13 AM CST 4:47 PM CST
Civil Twilight 5:47 AM CST 5:14 PM CST
Nautical Twilight 5:17 AM CST 5:44 PM CST
Astronomical Twilight 4:47 AM CST 6:13 PM CST
Moon 10:19 AM CST (11/7) 9:00 PM CST (11/7)
Length of Visible Light 11h 27m
Length of Day
10h 34m
Waxing Crescent, 23% of the Moon is Illuminated
Nov 7
Waxing Crescent
Nov 9
First Quarter
Nov 17
Full
Nov 25
Last Quarter
Dec 2
New

Hourly Weather History & Observations

Time (CST) Temp. Windchill Dew Point Humidity Pressure Visibility Wind Dir Wind Speed Gust Speed Precip Events Conditions
12:31 AM 62.6 °F - 60.8 °F 94% 30.09 in 5.0 mi Calm Calm - 0.03 in Rain Light Rain
12:53 AM 62.1 °F - 60.1 °F 93% 30.06 in 6.0 mi SE 3.5 mph - 0.06 in Rain Light Rain
1:36 AM 60.8 °F - 60.8 °F 100% 30.07 in 5.0 mi Calm Calm - 0.02 in Rain Light Rain
1:44 AM 60.8 °F - 60.8 °F 100% 30.07 in 5.0 mi Calm Calm - 0.02 in Rain Light Rain
1:53 AM 61.0 °F - 60.1 °F 97% 30.05 in 5.0 mi Calm Calm - 0.02 in Rain Light Rain
2:01 AM 60.8 °F - 60.8 °F 100% 30.08 in 5.0 mi WSW 3.5 mph - 0.00 in Rain Light Rain
2:15 AM 60.8 °F - 60.8 °F 100% 30.08 in 2.5 mi Calm Calm - 0.00 in Rain Rain
2:20 AM 60.8 °F - 60.8 °F 100% 30.08 in 1.8 mi Calm Calm - 0.01 in Rain Rain
2:24 AM 60.8 °F - 60.8 °F 100% 30.08 in 1.8 mi NW 18.4 mph 26.5 mph 0.01 in Rain Light Rain
2:30 AM 55.4 °F - 53.6 °F 94% 30.09 in 3.0 mi NNW 23.0 mph 35.7 mph 0.02 in Rain Light Rain
2:43 AM 53.6 °F - 51.8 °F 94% 30.10 in 10.0 mi NNW 17.3 mph 27.6 mph 0.02 in Rain Light Rain
2:53 AM 53.1 °F - 51.1 °F 93% 30.10 in 10.0 mi NNW 13.8 mph 23.0 mph 0.02 in Rain Light Rain
3:02 AM 53.6 °F - 50.0 °F 88% 30.12 in 8.0 mi NNW 13.8 mph - 0.00 in   Overcast
3:27 AM 51.8 °F - 48.2 °F 88% 30.14 in 4.0 mi NNW 17.3 mph 23.0 mph 0.00 in Rain Light Rain
3:53 AM 50.0 °F - 48.0 °F 93% 30.15 in 5.0 mi NNW 13.8 mph 21.9 mph 0.00 in Rain Light Rain
4:53 AM 48.0 °F - 46.0 °F 93% 30.18 in 10.0 mi NNW 10.4 mph - 0.00 in Rain Light Rain
5:53 AM 46.9 °F - 44.1 °F 90% 30.20 in 10.0 mi NNW 12.7 mph 17.3 mph 0.00 in   Overcast
6:25 AM 46.4 °F 41.1 °F 42.8 °F 87% 30.23 in 10.0 mi NNW 11.5 mph 19.6 mph N/A   Overcast
6:53 AM 45.0 °F 38.5 °F 41.0 °F 86% 30.25 in 10.0 mi North 13.8 mph 19.6 mph N/A   Overcast
7:53 AM 45.0 °F 39.7 °F 39.9 °F 82% 30.29 in 10.0 mi North 10.4 mph 19.6 mph N/A   Overcast
8:53 AM 45.0 °F 38.2 °F 37.9 °F 76% 30.31 in 10.0 mi North 15.0 mph 19.6 mph N/A   Overcast
9:53 AM 48.0 °F - 39.0 °F 71% 30.32 in 10.0 mi North 12.7 mph 20.7 mph N/A   Mostly Cloudy
10:53 AM 51.1 °F - 39.9 °F 66% 30.31 in 10.0 mi North 9.2 mph - N/A   Scattered Clouds
11:53 AM 53.1 °F - 37.9 °F 57% 30.29 in 10.0 mi NNE 9.2 mph - N/A   Scattered Clouds
12:53 PM 55.9 °F - 36.0 °F 47% 30.27 in 10.0 mi North 9.2 mph - N/A   Partly Cloudy
1:53 PM 57.0 °F - 33.1 °F 40% 30.25 in 10.0 mi North 12.7 mph 21.9 mph N/A   Partly Cloudy
2:53 PM 57.0 °F - 32.0 °F 39% 30.25 in 10.0 mi NNW 15.0 mph - N/A   Scattered Clouds
3:53 PM 55.9 °F - 30.0 °F 37% 30.26 in 10.0 mi North 12.7 mph 18.4 mph N/A   Scattered Clouds
4:53 PM 51.1 °F - 30.0 °F 44% 30.27 in 10.0 mi NNW 6.9 mph - N/A   Partly Cloudy
5:53 PM 48.9 °F - 30.0 °F 48% 30.28 in 10.0 mi North 6.9 mph - N/A   Partly Cloudy
6:53 PM 46.9 °F - 30.0 °F 52% 30.30 in 10.0 mi North 4.6 mph - N/A   Clear
7:53 PM 43.0 °F 39.5 °F 30.0 °F 60% 30.31 in 10.0 mi NNW 5.8 mph - N/A   Clear
8:53 PM 39.9 °F 36.7 °F 30.0 °F 68% 30.32 in 10.0 mi NW 4.6 mph - N/A   Clear
9:53 PM 39.0 °F 35.7 °F 30.0 °F 70% 30.32 in 10.0 mi NW 4.6 mph - N/A   Clear
10:53 PM 37.9 °F 35.5 °F 30.0 °F 73% 30.33 in 10.0 mi NW 3.5 mph - N/A   Clear
11:53 PM 36.0 °F 32.1 °F 30.0 °F 79% 30.33 in 10.0 mi NNW 4.6 mph - N/A   Clear